N2IVN Weather Reports


time (UTC)temp
C
wind
direction
speed
KPH
gust
KPH
rain 1hr
cm
rain 24hr
cm
rain mn
cm
humidity
%
barometer
mb
20260504151004 24 219 3.2 19.3 0.00 0.00 0.00 46 1013.9
20260504150504 24 225 1.6 14.5 0.00 0.00 0.00 46 1013.8
20260504140504 26 200 3.2 14.5 0.00 0.00 0.00 48 1014.1
20260504130505 19 227 1.6 16.1 0.00 0.00 0.00 55 1014.6
20260504110505 10 180 0.0 3.2 0.00 0.00 0.00 86 1015.4
20260504100505 8 225 0.0 0.0 0.00 0.00 0.00 86 1015.5
20260504082005 8 225 3.2 19.3 0.00 0.00 0.00 78 1015.5
20260504081504 8 202 3.2 11.3 0.00 0.00 0.00 78 1015.5
20260504081004 8 202 0.0 9.7 0.00 0.00 0.00 77 1015.5
20260504080505 7 190 1.6 4.8 0.00 0.00 0.00 77 1015.5
20260504050505 8 225 0.0 3.2 0.00 0.00 0.00 72 1015.0
20260504050004 8 225 0.0 4.8 0.00 0.00 0.00 72 1015.0
20260504045504 8 212 1.6 8.0 0.00 0.00 0.00 71 1015.0
20260504045004 8 202 1.6 9.7 0.00 0.00 0.00 71 1014.9
20260504044504 8 222 0.0 4.8 0.00 0.00 0.00 71 1014.8
20260504044004 8 225 0.0 9.7 0.00 0.00 0.00 70 1014.7
20260504043505 8 202 1.6 11.3 0.00 0.00 0.00 70 1014.9
20260504043004 8 217 0.0 8.0 0.00 0.00 0.00 69 1014.8
20260504042504 8 213 0.0 11.3 0.00 0.00 0.00 69 1014.9
20260504042004 8 203 3.2 11.3 0.00 0.00 0.00 69 1014.7
20260504041504 8 212 3.2 9.7 0.00 0.00 0.00 69 1014.8
20260504041004 8 203 1.6 8.0 0.00 0.00 0.00 68 1014.7
20260504040504 8 206 1.6 11.3 0.00 0.00 0.00 67 1014.7
20260504040004 8 207 1.6 11.3 0.00 0.00 0.00 67 1014.6
20260504035504 8 202 0.0 11.3 0.00 0.00 0.00 67 1014.6
20260504034504 8 204 1.6 9.7 0.00 0.00 0.00 65 1014.6
20260504033004 8 217 1.6 11.3 0.00 0.00 0.00 63 1014.4
20260504032003 8 215 3.2 11.3 0.00 0.00 0.00 63 1014.4
20260504031504 8 202 1.6 4.8 0.00 0.00 0.00 62 1014.3
20260504031004 8 202 1.6 4.8 0.00 0.00 0.00 62 1014.3
20260504030504 8 225 3.2 9.7 0.00 0.00 0.00 62 1014.4
20260504025505 9 215 0.0 0.0 0.00 0.00 0.00 61 1014.2
20260504025004 9 213 0.0 0.0 0.00 0.00 0.00 60 1014.3
20260504024504 9 209 3.2 11.3 0.00 0.00 0.00 59 1014.3
20260504024004 9 218 0.0 8.0 0.00 0.00 0.00 59 1014.3
20260504023504 9 180 1.6 8.0 0.00 0.00 0.00 58 1014.3
20260504022504 10 220 0.0 3.2 0.00 0.00 0.00 58 1014.4
20260504022004 10 202 0.0 9.7 0.00 0.00 0.00 58 1014.4
20260504021504 10 202 0.0 3.2 0.00 0.00 0.00 57 1014.5
20260504021005 10 218 0.0 4.8 0.00 0.00 0.00 56 1014.4
20260504020504 10 195 0.0 11.3 0.00 0.00 0.00 55 1014.3
20260504015504 10 225 0.0 4.8 0.00 0.00 0.00 54 1014.4
20260504014504 10 203 0.0 8.0 0.00 0.00 0.00 54 1014.3
20260504014004 10 203 1.6 8.0 0.00 0.00 0.00 53 1014.3
20260504013504 10 212 0.0 0.0 0.00 0.00 0.00 53 1014.2
20260504013004 10 225 0.0 0.0 0.00 0.00 0.00 52 1014.3
20260504012504 10 180 0.0 0.0 0.00 0.00 0.00 52 1014.3
20260504012004 10 202 0.0 0.0 0.00 0.00 0.00 52 1014.2
20260504011503 10 213 0.0 0.0 0.00 0.00 0.00 52 1014.1
20260504011004 10 225 1.6 9.7 0.00 0.00 0.00 52 1014.1
20260504010505 10 202 0.0 0.0 0.00 0.00 0.00 51 1014.0
20260504010004 10 225 0.0 0.0 0.00 0.00 0.00 51 1013.7
20260504005503 10 225 0.0 0.0 0.00 0.00 0.00 51 1013.6
20260504005004 10 225 0.0 0.0 0.00 0.00 0.00 50 1013.6
20260504004005 10 225 0.0 0.0 0.00 0.00 0.00 50 1013.6
20260504003504 10 225 0.0 0.0 0.00 0.00 0.00 49 1013.3
20260504002504 10 270 0.0 0.0 0.00 0.00 0.00 48 1013.1
20260504002005 11 270 0.0 0.0 0.00 0.00 0.00 48 1013.2
20260504001504 11 270 0.0 0.0 0.00 0.00 0.00 46 1013.1
20260504001003 11 270 0.0 0.0 0.00 0.00 0.00 46 1013.0
20260504000505 11 270 0.0 0.0 0.00 0.00 0.00 45 1013.0
20260503235505 12 270 0.0 0.0 0.00 0.00 0.00 44 1013.0
20260503235006 12 248 0.0 0.0 0.00 0.00 0.00 44 1013.0
20260503234506 12 248 0.0 0.0 0.00 0.00 0.00 44 1013.0
20260503233506 13 248 0.0 0.0 0.00 0.00 0.00 43 1012.9
20260503233008 13 248 0.0 0.0 0.00 0.00 0.00 43 1013.0
20260503232509 13 248 0.0 0.0 0.00 0.00 0.00 42 1012.9
20260503232005 13 161 0.0 0.0 0.00 0.00 0.00 42 1012.9
20260503231505 13 257 0.0 0.0 0.00 0.00 0.00 42 1012.9
20260503231005 13 248 0.0 0.0 0.00 0.00 0.00 42 1012.7
20260503230505 14 225 0.0 0.0 0.00 0.00 0.00 42 1012.8
20260503230006 14 225 0.0 0.0 0.00 0.00 0.00 42 1012.7
20260503225505 14 225 0.0 0.0 0.00 0.00 0.00 41 1012.7
20260503225005 14 225 0.0 19.3 0.00 0.00 0.00 41 1012.7
20260503224506 14 267 0.0 19.3 0.00 0.00 0.00 41 1012.8
20260503224005 14 252 0.0 8.0 0.00 0.00 0.00 41 1012.8
20260503223506 15 269 0.0 0.0 0.00 0.00 0.00 41 1012.8
20260503222505 15 270 1.6 4.8 0.00 0.00 0.00 41 1012.8
20260503221006 15 263 1.6 12.9 0.00 0.00 0.00 41 1012.7
20260503220505 15 287 0.0 0.0 0.00 0.00 0.00 40 1012.7
20260503215505 15 287 0.0 9.7 0.00 0.00 0.00 40 1012.7
20260503215005 15 210 1.6 9.7 0.00 0.00 0.00 40 1012.8
20260503214505 15 325 1.6 11.3 0.00 0.00 0.00 40 1012.8
20260503214005 15 339 0.0 9.7 0.00 0.00 0.00 41 1012.8
20260503213506 15 256 1.6 11.3 0.00 0.00 0.00 40 1012.6
20260503212505 15 311 1.6 12.9 0.00 0.00 0.00 40 1012.7
20260503212006 15 305 0.0 4.8 0.00 0.00 0.00 40 1012.6
20260503211505 15 309 1.6 20.9 0.00 0.00 0.00 39 1012.7
20260503211006 15 316 8.0 19.3 0.00 0.00 0.00 39 1012.7
20260503210505 15 315 0.0 14.5 0.00 0.00 0.00 39 1012.6
20260503210005 16 270 1.6 24.1 0.00 0.00 0.00 39 1012.8
20260503205506 16 310 3.2 19.3 0.00 0.00 0.00 38 1012.7
20260503205005 16 293 1.6 9.7 0.00 0.00 0.00 39 1012.8
20260503204005 16 315 1.6 9.7 0.00 0.00 0.00 39 1012.8
20260503203505 16 315 6.4 20.9 0.00 0.00 0.00 38 1012.8
20260503203005 16 286 3.2 9.7 0.00 0.00 0.00 38 1012.9
20260503202505 16 259 4.8 24.1 0.00 0.00 0.00 38 1012.8
20260503202005 16 0 3.2 12.9 0.00 0.00 0.00 38 1012.7
20260503201505 16 287 1.6 12.9 0.00 0.00 0.00 38 1012.6
20260503201005 16 291 0.0 4.8 0.00 0.00 0.00 38 1012.9
20260503200505 16 282 0.0 9.7 0.00 0.00 0.00 38 1013.0
20260503200005 17 315 0.0 11.3 0.00 0.00 0.00 38 1012.9
20260503195505 17 271 1.6 19.3 0.00 0.00 0.00 37 1012.9
20260503195005 17 309 3.2 16.1 0.00 0.00 0.00 37 1012.9
20260503194505 17 335 8.0 25.7 0.00 0.00 0.00 35 1012.8
20260503194004 17 338 6.4 20.9 0.00 0.00 0.00 35 1012.8
20260503193005 18 270 3.2 9.7 0.00 0.00 0.00 35 1012.8
20260503192505 18 326 3.2 16.1 0.00 0.00 0.00 34 1013.0
20260503192005 19 282 1.6 11.3 0.00 0.00 0.00 34 1013.1
20260503191505 20 251 0.0 14.5 0.00 0.00 0.00 34 1013.2
20260503191005 20 307 1.6 19.3 0.00 0.00 0.00 34 1013.1
20260503190005 21 292 0.0 0.0 0.00 0.00 0.00 33 1013.1
20260503185505 21 306 1.6 19.3 0.00 0.00 0.00 32 1013.4
20260503185005 22 308 3.2 12.9 0.00 0.00 0.00 32 1013.5
20260503184505 22 275 1.6 8.0 0.00 0.00 0.00 32 1013.4
20260503184005 23 325 0.0 11.3 0.00 0.00 0.00 32 1013.5
20260503183505 23 252 1.6 9.7 0.00 0.00 0.00 32 1013.5
20260503183005 22 288 3.2 11.3 0.00 0.00 0.00 34 1013.6
20260503182506 22 279 0.0 0.0 0.00 0.00 0.00 35 1013.5
20260503182006 21 315 0.0 11.3 0.00 0.00 0.00 35 1013.5
20260503181505 22 326 3.2 14.5 0.00 0.00 0.00 34 1013.5
20260503181005 22 302 8.0 14.5 0.00 0.00 0.00 35 1013.5
20260503180505 21 258 3.2 9.7 0.00 0.00 0.00 36 1013.6
20260503180005 20 357 0.0 25.7 0.00 0.00 0.00 36 1013.5
20260503175505 21 338 9.7 29.0 0.00 0.00 0.00 35 1013.5
20260503175005 21 301 3.2 20.9 0.00 0.00 0.00 35 1013.5
20260503174505 21 298 0.0 4.8 0.00 0.00 0.00 36 1013.6
20260503173505 21 284 3.2 12.9 0.00 0.00 0.00 36 1013.6
20260503173006 21 289 0.0 4.8 0.00 0.00 0.00 36 1013.6
20260503172505 22 209 0.0 9.7 0.00 0.00 0.00 36 1013.6
20260503172006 21 302 1.6 11.3 0.00 0.00 0.00 37 1013.5
20260503171505 21 340 0.0 0.0 0.00 0.00 0.00 37 1013.6